+ View the NASA Portal
+ Center for Near-Earth Object Studies
JPL Small-Body Database Browser
Search:
[
help
]
118053 (4106 T-2)
Classification:
Main-belt Asteroid
SPK-ID:
2118053
[
Ephemeris
|
Orbit Diagram
|
Orbital Elements
|
Mission Design
|
Physical Parameters
|
Discovery Circumstances
]
[ show orbit diagram ]
Orbital Elements at Epoch 2459200.5 (2020-Dec-17.0) TDB
Reference:
JPL 17
(heliocentric ecliptic J2000)
Element
Value
Uncertainty (1-sigma)
Units
e
.1064442422597351
4.0131e-08
a
3.043804563270653
2.4111e-08
au
q
2.719809092946584
1.2712e-07
au
i
2.539766620319848
4.4333e-06
deg
node
88.4490161793091
0.00010505
deg
peri
250.0804907372217
0.00010724
deg
M
342.8431243200677
2.2445e-05
deg
t
p
2459292.939859376895
(2021-Mar-19.43985938)
0.00012136
TDB
period
1939.650901277241
5.31
2.3047e-05
6.31e-08
d
yr
n
.1856004086936178
2.2053e-09
deg/d
Q
3.367800033594722
2.6678e-08
au
Orbit Determination Parameters
# obs. used (total)
647
data-arc span
17087 days (46.78 yr)
first obs. used
1973-09-19
last obs. used
2020-07-01
planetary ephem.
DE431
SB-pert. ephem.
SB431-N16
condition code
0
norm. resid. RMS
.55824
source
ORB
producer
Otto Matic
solution date
2020-Nov-12 18:14:27
Additional Information
Earth MOID
= 1.71017 au
Jupiter MOID
= 1.98651 au
T_jup
= 3.229
[ show covariance matrix ]
[
Ephemeris
|
Orbit Diagram
|
Orbital Elements
|
Mission Design
|
Physical Parameters
|
Discovery Circumstances
]
Physical Parameter Table
Parameter
Symbol
Value
Units
Sigma
Reference
Notes
absolute magnitude
H
14.93
n/a
E2021B55
118053 (4106 T-2)
Discovered 1973-Sep-29 by van Houten, C. J., van Houten-Groeneveld, I., Gehrels, T. at Palomar
Reference:
20051019/Numbers.arc
Last Updated:
2005-10-26
Alternate Designations
4106 T-2
= 2000 VX11
[
Ephemeris
|
Orbit Diagram
|
Orbital Elements
|
Mission Design
|
Physical Parameters
|
Discovery Circumstances
]
2021-Apr-10 20:32 UT
(server date/time)
Site Manager:
Ryan S. Park
Webmaster
:
Alan B. Chamberlin